Theta_e
350 353 357 359 359 359 359 358 358 357 357 355 355 354 355 355 354 354 354 354 354 353 354 353 353 352 352 352 351 351 350 350 349 348 347 346 346 345 345 345 344 344 344 343 344 345 345 346 348 347 347 349 349 347 348 347 345 344 346 345 347 347 346 347 346 346 347 346 346 346 346 346 347 348 346 348 347 347 346 346 346 343 342 344 347
349 354 356 358 358 359 359 358 358 357 356 355 355 355 355 355 354 353 353 353 353 353 353 353 352 352 352 351 351 350 350 349 348 347 347 346 345 345 345 345 344 345 345 344 344 344 345 345 347 347 347 346 348 348 347 348 348 348 347 347 346 344 345 346 347 345 346 346 346 345 345 346 346 346 347 348 347 347 346 346 345 342 341 345 345
352 354 356 358 359 359 358 358 357 357 356 355 355 355 354 353 353 353 354 353 353 353 353 352 352 352 351 351 350 350 349 348 348 347 346 346 346 345 344 344 343 343 344 344 345 344 344 345 346 346 346 347 347 346 347 348 347 347 346 345 344 345 345 347 346 346 346 346 346 346 346 347 346 346 348 347 347 346 346 345 345 344 341 345 345
351 354 357 358 359 358 358 357 357 356 356 355 355 354 354 353 353 353 353 353 353 353 352 352 352 352 351 351 349 349 348 348 347 346 347 346 345 345 345 344 345 344 344 345 344 344 345 344 345 346 346 346 347 347 347 346 346 346 346 346 346 347 346 345 345 345 345 345 345 343 342 339 342 345 345 346 346 346 345 345 345 344 344 344 345
351 354 356 357 356 357 357 357 356 356 356 355 355 354 353 353 353 353 353 353 353 352 352 352 352 351 351 350 350 349 348 347 347 347 346 345 346 345 345 344 345 345 343 342 342 342 344 345 345 344 345 345 345 345 345 346 346 345 344 345 346 346 346 345 345 344 344 344 343 341 337 338 339 344 345 344 344 343 343 343 343 343 343 343 343
351 354 356 356 356 356 357 356 356 356 356 355 355 354 354 353 353 353 352 352 352 352 352 352 352 351 351 350 349 349 348 347 347 346 345 345 347 346 346 345 345 346 347 346 344 343 343 345 344 345 344 344 344 345 345 344 344 344 344 344 344 345 345 345 344 343 343 342 341 336 336 337 338 340 344 343 343 342 341 341 342 342 342 342 342
352 354 355 356 356 356 356 356 356 356 355 355 354 354 354 353 353 353 352 352 352 352 352 352 351 351 351 350 349 348 347 347 346 346 345 346 347 347 346 347 347 349 349 349 348 346 344 344 344 345 345 344 344 344 343 343 343 343 343 344 344 344 345 345 345 341 340 336 331 332 333 335 336 337 342 342 341 340 339 340 340 340 340 341 341
352 354 354 355 356 356 356 355 355 355 355 355 355 354 354 354 353 352 352 352 352 352 352 351 351 350 350 350 349 348 347 347 348 348 346 346 347 348 347 346 350 350 349 349 348 346 345 344 344 344 344 344 344 343 343 343 343 343 343 343 344 345 346 346 346 340 338 331 331 332 333 334 334 333 339 340 341 339 340 340 338 338 338 339 339
349 353 354 355 356 356 355 354 355 355 355 355 354 354 354 353 353 352 352 352 352 352 351 351 350 350 350 350 349 347 347 347 348 348 346 346 349 349 348 348 349 350 349 348 348 346 344 343 343 343 343 343 343 343 342 342 342 343 343 343 345 346 342 342 344 338 333 331 331 331 333 333 332 331 337 337 336 337 338 338 338 338 338 338 337
349 352 354 355 355 356 354 354 354 355 355 355 354 354 354 353 353 353 352 352 352 351 351 350 350 350 350 350 349 348 347 348 348 349 347 348 349 348 348 348 348 348 348 349 349 347 345 345 344 345 343 343 343 342 342 342 342 343 343 344 345 346 341 341 341 339 334 334 334 334 336 338 331 334 338 340 340 339 338 339 337 337 337 337 337
349 351 353 355 355 354 354 354 354 355 355 355 354 354 354 353 353 353 352 352 352 351 351 350 350 349 349 349 350 348 348 348 349 349 348 347 347 347 349 351 350 350 350 349 349 348 347 345 345 346 345 344 343 342 342 342 343 343 344 344 346 344 340 338 337 332 333 332 332 332 336 338 330 333 338 338 338 336 335 335 336 336 336 336 337
349 351 353 354 356 354 354 354 354 354 354 354 354 354 354 353 353 352 352 352 352 351 351 350 349 348 349 349 349 349 348 349 349 349 348 348 349 351 351 351 349 349 348 348 347 346 346 345 345 345 345 345 344 343 343 341 343 344 344 344 345 339 338 337 332 330 330 331 331 331 331 331 332 335 338 338 339 339 336 335 335 336 336 341 341
348 350 352 353 354 354 353 353 354 353 353 354 354 354 354 354 353 352 352 352 352 351 351 350 350 350 349 349 349 349 348 349 349 349 348 350 352 352 351 350 349 348 348 347 346 346 346 346 345 345 345 345 344 344 343 344 345 344 343 344 345 338 337 336 329 329 329 328 329 329 330 332 334 337 337 337 337 336 336 336 336 337 337 338 340
348 349 351 352 353 356 353 352 352 353 353 353 353 353 353 353 353 352 351 351 351 351 351 351 351 351 350 350 350 350 350 350 350 350 350 351 352 351 350 350 349 348 347 346 346 346 346 346 346 346 346 346 345 344 345 345 344 345 344 344 346 338 338 337 334 329 329 329 332 331 331 333 334 338 338 338 337 336 336 335 335 336 336 337 338
348 349 350 351 352 353 355 352 352 351 351 352 352 352 352 352 351 351 351 351 350 351 350 350 351 351 350 350 350 350 350 351 351 351 352 351 351 351 349 349 348 347 346 346 346 346 346 346 346 346 345 345 345 345 345 345 345 344 345 347 346 337 337 330 330 330 330 331 330 331 332 333 335 335 336 336 337 337 336 335 335 335 336 336 336
349 349 350 350 351 351 351 354 352 351 351 352 352 352 352 351 351 351 350 350 350 350 350 351 351 351 351 351 351 351 350 350 351 351 352 351 350 350 349 348 347 347 346 346 346 346 346 346 346 345 345 345 345 345 345 345 344 345 347 344 340 338 337 333 329 328 327 327 328 331 330 331 337 337 336 337 337 336 336 335 335 334 335 334 334
348 349 349 349 349 349 350 350 351 352 351 351 351 351 351 351 350 350 350 350 350 350 350 351 351 351 351 351 351 351 351 351 352 351 351 350 350 349 348 347 347 346 347 346 346 346 346 345 345 345 345 344 345 345 345 344 344 345 345 339 338 337 337 334 328 326 326 328 329 327 327 330 335 336 337 337 336 336 336 335 335 335 335 335 335
347 347 347 348 348 348 348 348 349 348 349 351 351 351 351 350 350 350 350 350 350 350 351 351 351 350 351 351 351 351 352 352 352 351 350 349 349 348 348 347 347 346 346 346 346 345 346 345 345 344 345 344 345 344 345 344 345 345 343 341 340 338 337 335 328 329 330 334 330 333 331 335 337 336 337 336 336 336 335 334 334 335 335 334 334
345 346 347 347 347 347 346 347 347 347 348 347 348 349 351 350 350 350 350 350 350 350 350 350 350 350 350 351 351 352 351 351 351 351 350 349 348 348 347 347 346 346 346 346 346 345 345 345 345 345 343 344 344 344 345 344 345 346 347 342 340 339 338 334 330 329 330 328 329 329 331 337 337 336 336 336 335 334 334 335 334 334 333 333 332
343 343 344 346 346 345 345 345 345 345 346 346 346 347 349 350 351 350 350 350 350 350 350 350 350 349 349 349 349 349 348 348 350 349 349 349 348 346 347 347 347 346 346 346 346 345 345 346 345 344 344 344 344 345 345 345 346 347 345 340 338 337 329 328 328 328 328 330 329 328 336 337 336 335 335 334 333 333 334 334 333 334 333 332 333
341 341 342 343 344 344 344 344 344 344 345 345 345 346 348 350 350 350 350 350 350 350 350 350 349 348 348 348 347 344 344 345 346 346 349 346 347 348 347 348 347 346 346 346 345 345 345 345 345 344 344 344 344 344 344 345 346 346 341 336 335 327 328 328 329 330 329 329 332 331 335 335 334 335 336 336 336 335 334 333 333 333 333 332 332
337 338 341 343 343 343 343 343 343 343 345 345 346 346 347 348 346 347 347 347 349 349 347 345 348 344 348 346 343 345 342 343 344 348 345 346 346 347 347 347 347 346 346 345 345 345 344 345 344 344 344 344 345 333 335 342 345 346 342 335 327 326 327 327 327 327 328 328 331 333 336 336 335 333 334 334 335 335 334 333 333 332 333 332 332
335 337 339 341 342 342 343 342 342 343 344 344 345 345 346 345 345 345 346 348 348 348 345 345 343 343 343 343 344 342 342 342 343 345 345 346 345 347 347 347 347 347 346 345 345 345 344 344 345 345 344 344 335 335 336 332 334 343 342 332 328 328 328 327 327 327 328 330 328 336 336 336 335 335 335 333 334 333 333 333 333 333 332 331 331
335 337 338 341 341 341 341 342 342 343 343 343 344 344 344 344 344 344 344 344 345 345 344 344 343 342 342 341 340 341 340 340 347 346 347 344 344 346 347 347 346 346 346 344 345 344 344 344 344 344 341 338 333 334 336 335 333 331 331 329 328 329 329 329 329 329 330 334 331 337 336 336 335 334 335 335 334 333 333 333 334 332 332 331 331
336 338 338 339 339 340 340 340 341 342 342 342 343 343 343 343 343 343 343 343 343 343 343 342 342 341 340 339 339 339 338 339 338 340 339 340 340 340 341 340 339 337 343 337 338 340 338 334 334 335 330 332 334 334 336 333 333 331 330 329 329 330 330 331 331 330 330 331 333 337 336 336 335 334 334 334 334 334 333 333 333 332 332 331 331
338 336 337 338 339 340 340 338 337 337 337 338 340 342 343 341 341 342 342 341 341 341 340 340 340 339 339 339 339 337 336 336 337 337 337 338 337 335 335 335 334 336 338 334 333 334 334 335 334 334 334 334 334 335 335 333 332 331 330 330 330 331 332 333 332 332 332 332 334 337 336 335 335 336 336 334 333 333 332 332 332 331 330 330 329
334 334 335 336 338 338 338 337 336 336 337 338 340 341 340 340 341 341 340 339 339 338 338 338 339 339 339 339 337 336 335 335 336 336 336 336 336 335 334 334 333 334 335 332 333 334 334 334 334 335 335 336 336 337 335 332 331 331 332 333 334 334 334 334 334 334 332 332 336 337 336 336 335 334 335 335 336 335 334 334 334 333 332 332 332
332 333 335 335 337 337 338 337 336 336 336 338 338 337 337 338 339 344 340 343 338 337 336 338 338 338 339 338 338 336 335 335 335 335 335 335 335 335 334 333 333 333 335 333 333 333 332 333 333 331 333 335 337 337 334 332 331 331 331 332 333 333 333 334 335 335 334 333 333 336 336 336 335 335 334 334 334 334 334 335 335 335 334 332 331
331 332 334 335 336 337 337 337 336 336 336 337 337 336 336 336 336 337 337 344 336 336 336 337 337 338 338 338 338 335 335 335 334 335 335 334 334 333 332 333 333 333 333 333 331 331 328 330 331 330 329 332 335 335 332 331 330 330 330 332 334 334 333 333 335 335 334 332 332 335 336 335 334 334 333 334 334 336 337 338 338 337 336 334 332
331 333 333 334 336 337 337 336 336 336 336 336 336 335 335 335 335 335 336 340 334 335 336 336 337 337 337 338 338 336 336 335 335 335 335 334 333 333 333 331 332 331 332 332 330 329 326 326 327 328 329 330 335 334 332 330 329 329 330 331 332 333 333 333 334 334 334 333 333 336 337 336 337 338 337 336 335 335 337 338 338 338 338 336 334
332 331 332 333 335 336 336 336 336 338 336 336 335 334 334 334 335 334 335 334 334 336 335 335 336 336 337 337 337 337 336 336 335 335 334 333 332 331 331 331 330 331 330 330 330 329 326 326 327 327 327 333 332 333 331 330 330 330 330 330 331 333 333 334 335 334 334 334 333 333 336 339 338 338 337 336 336 335 336 337 338 338 338 337 337
330 331 332 334 334 335 336 336 336 336 335 335 337 334 334 334 335 334 333 334 335 334 334 334 336 336 337 337 337 337 337 336 335 334 334 332 331 331 331 330 330 330 330 329 330 330 327 327 329 331 332 332 330 331 331 329 329 329 330 330 330 332 332 333 333 334 332 332 333 333 333 336 338 337 337 338 338 336 336 338 339 339 339 338 338
332 332 333 333 334 335 333 335 336 335 335 335 334 333 333 335 335 334 335 336 334 334 333 334 335 336 338 338 337 337 337 336 335 335 335 331 331 331 331 332 332 332 331 331 332 329 333 332 332 332 330 329 330 330 331 329 328 328 329 330 331 332 333 333 333 333 333 330 332 331 331 331 332 337 338 339 339 339 338 338 338 337 338 338 338
331 332 334 333 335 335 334 333 336 334 334 334 334 333 334 335 335 335 337 336 334 334 334 335 336 336 337 337 337 337 337 336 335 333 332 331 331 331 331 332 333 334 334 334 334 334 332 332 332 331 331 327 327 328 328 328 327 327 328 329 330 330 331 332 330 331 331 330 329 330 330 330 330 331 333 338 338 337 338 337 337 336 337 337 337
332 332 332 332 335 334 334 334 335 334 336 334 334 334 335 335 334 334 335 335 334 334 335 335 335 335 337 338 337 337 336 335 335 333 332 331 331 330 330 332 335 335 337 334 333 332 331 331 332 329 327 326 327 328 328 328 328 327 326 328 329 330 331 330 331 330 330 329 329 330 329 330 329 331 332 330 338 337 337 337 337 337 338 337 337
331 332 333 335 334 333 335 333 334 333 333 334 334 335 336 334 333 336 334 335 335 335 335 336 336 335 337 337 336 336 335 335 334 333 332 332 332 330 330 332 336 336 336 333 331 331 331 331 330 328 326 326 327 326 326 326 327 326 327 328 329 330 329 329 330 329 330 330 329 328 329 329 329 329 335 329 329 334 337 338 338 337 338 338 337
332 333 334 332 332 333 334 332 332 333 333 334 334 334 334 333 333 334 334 334 334 335 336 336 336 336 336 336 336 336 335 336 335 335 334 332 331 330 332 333 336 334 333 332 331 332 330 329 329 330 328 326 326 325 325 326 326 326 327 327 328 329 329 329 328 329 331 329 328 328 329 328 330 338 329 328 327 328 336 336 336 336 337 338 339
333 334 334 332 331 332 331 330 332 334 334 334 334 334 332 331 330 331 335 334 333 336 336 337 337 337 336 336 336 335 336 336 335 335 334 332 332 332 331 332 332 331 331 330 330 330 329 329 327 328 329 327 325 325 324 325 326 326 326 326 326 326 328 329 329 330 329 329 328 328 329 330 331 330 329 327 327 326 327 331 335 336 337 337 338
332 333 333 335 333 331 330 331 334 334 333 334 334 333 333 331 329 330 332 332 334 336 337 337 337 337 336 335 334 334 336 335 334 333 332 333 332 331 330 331 331 330 330 329 328 329 329 328 328 328 328 327 327 326 325 326 326 326 326 326 328 327 329 330 330 329 329 329 330 331 330 329 330 329 329 327 327 325 324 322 322 324 327 336 338
333 334 333 335 332 331 331 331 335 335 335 335 335 332 332 331 330 329 331 332 333 335 336 336 337 336 336 333 333 333 333 333 332 331 331 331 330 329 329 331 330 330 329 328 328 329 328 328 328 328 326 327 327 327 327 326 326 326 326 327 327 328 328 328 328 328 327 330 331 330 329 328 329 328 329 328 327 326 324 324 328 326 327 332 335
332 332 332 334 332 330 330 330 335 337 336 335 333 331 329 329 329 329 329 331 332 334 334 335 336 336 336 334 333 332 332 332 332 331 330 333 329 329 330 330 330 329 329 329 330 329 329 329 328 328 326 325 325 327 328 328 326 325 325 324 324 325 329 327 326 325 326 327 328 329 328 328 328 328 328 328 327 326 326 325 325 325 327 327 329
330 330 330 333 333 333 332 333 335 337 337 336 333 331 330 329 329 328 329 330 331 332 332 334 335 336 336 334 332 331 330 331 331 331 331 330 329 329 329 329 329 329 330 330 330 331 329 328 328 326 327 326 325 327 328 327 323 322 320 320 322 323 325 325 324 324 323 325 325 327 327 328 327 329 329 328 328 329 327 326 325 326 327 327 328
330 329 330 333 333 334 335 335 335 336 337 336 334 331 330 329 328 327 329 330 332 331 333 334 336 335 334 333 332 330 331 331 331 331 331 331 331 329 328 329 329 330 329 328 328 328 328 327 327 326 325 325 326 328 327 324 322 323 322 320 317 316 320 322 324 323 325 323 324 325 327 328 329 328 328 327 326 327 328 326 326 326 324 326 326
330 329 329 332 334 334 335 335 336 337 337 336 334 333 332 331 328 328 329 330 329 332 331 333 334 334 332 331 331 331 331 331 332 333 332 331 331 329 329 330 329 330 329 328 327 327 327 327 327 327 326 323 325 326 328 324 324 322 316 313 316 317 313 316 318 321 323 325 324 325 326 328 329 330 327 326 327 327 326 327 326 325 324 323 324
329 329 329 331 333 334 335 336 336 336 336 335 334 333 332 330 328 328 329 328 329 329 329 329 331 332 332 330 330 330 331 331 332 333 334 332 331 330 330 329 329 329 329 328 327 327 327 328 328 327 326 325 323 324 325 324 325 325 320 315 313 313 312 314 318 319 322 322 324 326 326 328 327 327 327 326 325 326 327 327 325 324 322 322 322
328 329 330 330 332 334 335 336 335 335 335 334 333 333 332 329 326 324 324 325 325 326 325 326 328 329 330 331 331 330 330 330 330 332 334 334 332 331 330 329 329 329 328 328 327 326 326 328 329 328 326 326 325 323 323 324 326 326 323 319 319 313 312 316 317 312 320 321 321 324 325 326 325 325 323 323 325 325 327 326 325 323 320 319 319
325 326 326 328 330 333 335 335 334 333 332 332 331 333 331 329 327 325 325 325 325 328 329 329 329 331 330 329 330 330 330 330 330 331 331 333 333 332 331 330 331 329 329 327 326 326 327 328 328 328 327 326 325 322 323 323 324 324 324 324 323 318 321 318 311 312 313 316 319 319 320 324 325 324 320 324 324 325 325 325 322 320 319 318 318
322 326 328 328 327 328 332 333 332 331 331 331 332 333 330 329 328 326 326 325 326 328 329 329 330 331 330 329 329 330 331 331 330 330 330 330 333 332 332 331 330 329 329 327 326 326 326 328 328 329 327 327 325 324 322 324 323 321 321 321 321 321 322 317 318 316 314 312 313 317 320 318 319 320 321 324 324 324 323 321 319 318 316 316 316
324 325 326 325 326 327 328 330 330 330 331 332 332 332 331 330 328 327 326 327 327 327 330 331 330 331 330 330 330 330 330 331 331 331 332 332 333 332 331 330 330 329 330 327 326 327 326 326 326 327 326 326 325 325 324 324 322 321 321 317 320 319 318 318 319 316 311 311 309 312 310 312 315 317 321 322 323 323 322 320 319 317 317 316 314
322 324 325 326 326 326 327 329 331 332 334 333 332 331 331 330 328 327 326 325 326 326 329 329 329 329 329 329 329 328 328 329 330 330 331 332 332 332 331 329 328 329 329 327 327 326 326 326 326 327 326 326 325 325 325 324 323 322 322 320 317 316 316 316 315 314 315 313 312 312 309 310 310 313 318 319 320 321 320 319 318 317 315 314 313
323 323 323 324 325 325 326 327 331 333 333 333 331 330 330 330 329 328 327 325 325 326 327 327 328 328 327 327 328 327 326 328 329 329 330 331 330 330 329 328 328 329 329 328 327 327 326 326 326 326 326 325 325 324 323 324 323 322 321 322 320 320 317 315 315 315 314 310 310 308 308 311 312 311 314 317 319 319 320 318 317 315 314 312 311
Wind_Speed
4 9 7 12 14 15 16 16 16 17 18 18 17 17 16 16 16 17 18 19 19 19 19 20 20 20 20 20 20 20 20 19 19 20 19 19 19 19 19 18 18 16 16 17 17 16 17 18 18 16 17 16 17 17 18 18 18 18 17 18 19 19 19 19 19 16 19 17 16 17 15 17 17 18 18 18 19 18 17 16 13 10 8 13 18
9 6 7 10 14 15 15 16 17 17 18 18 18 17 17 16 16 17 18 18 18 19 19 19 19 20 20 20 20 19 19 19 19 19 19 19 19 19 19 18 17 17 17 16 17 16 16 16 17 16 16 16 17 17 18 18 18 18 18 18 19 18 14 16 20 17 17 16 18 19 18 18 18 18 18 18 18 18 16 16 15 8 7 16 17
10 8 7 10 15 16 16 16 17 17 18 18 18 18 17 17 16 17 17 18 18 18 18 18 19 19 19 20 19 19 19 19 19 19 19 19 18 20 19 18 17 17 17 17 16 16 15 15 16 15 15 15 16 17 17 19 19 16 18 16 15 15 18 19 19 18 18 18 17 17 18 19 18 18 18 18 18 17 17 16 16 15 11 17 15
12 8 7 11 15 15 17 17 17 17 17 17 17 18 17 17 16 16 17 17 17 18 18 19 19 19 19 19 19 19 19 19 19 19 19 19 18 19 19 19 18 17 16 16 16 15 14 14 16 15 13 15 15 14 14 16 15 12 14 14 14 15 17 19 18 17 17 16 15 12 7 7 11 17 17 17 17 17 16 17 17 18 18 16 17
12 9 8 9 9 12 16 17 17 17 17 17 17 18 17 17 17 17 16 16 17 18 19 19 19 19 18 18 19 19 19 18 18 18 19 18 17 18 18 18 18 18 17 16 15 14 14 13 13 13 14 14 14 13 13 13 13 12 11 11 13 13 14 17 17 16 16 15 13 9 7 8 8 15 16 17 16 15 15 16 16 17 16 17 17
10 9 9 9 8 10 15 15 17 17 16 17 18 18 18 17 17 16 15 16 16 18 18 18 18 18 18 18 18 18 18 18 18 19 19 16 15 17 17 18 18 17 17 17 16 14 13 12 12 11 12 12 12 12 12 12 11 11 11 11 11 10 7 6 11 15 14 13 10 5 6 6 6 8 17 16 15 15 15 14 15 15 15 17 17
12 8 9 9 7 9 14 15 16 16 16 17 18 18 18 17 16 16 16 17 17 18 18 18 18 18 17 17 18 18 17 17 17 18 18 16 16 15 17 17 17 18 18 17 16 15 13 11 11 10 10 10 11 12 12 12 11 11 11 11 10 9 9 7 10 15 13 7 6 5 5 6 5 5 15 15 15 15 14 14 14 14 15 15 15
8 8 8 9 8 11 14 14 15 16 16 17 17 18 18 17 16 16 16 16 17 17 17 17 17 17 17 17 18 17 17 16 15 17 18 16 16 14 14 16 18 17 17 17 16 14 12 12 11 10 10 11 11 12 12 11 11 11 10 10 9 9 9 8 14 14 12 6 5 6 6 6 7 6 13 15 15 15 14 15 14 14 15 15 14
9 8 8 9 10 16 13 14 15 16 17 17 17 18 18 17 16 16 17 16 16 17 17 17 17 17 17 16 17 16 16 15 15 17 17 16 13 13 14 15 15 16 16 16 15 13 12 11 10 10 10 11 11 11 11 11 10 10 9 9 10 12 16 16 15 14 8 6 6 6 6 6 4 4 12 14 13 14 14 12 12 15 16 15 15
8 7 8 8 10 15 14 14 15 16 16 17 17 18 18 17 16 16 16 16 17 17 17 17 18 17 17 16 16 16 15 15 17 17 16 15 16 16 14 14 14 15 16 16 15 13 12 10 9 9 10 10 10 10 10 10 9 9 9 11 11 12 17 18 17 12 7 6 7 7 6 6 3 7 13 16 16 16 15 15 11 11 12 15 16
9 7 7 9 13 15 15 15 15 16 16 18 18 17 18 17 16 15 15 16 16 16 16 17 17 17 17 16 16 15 15 16 17 17 16 15 15 15 15 15 14 15 16 16 15 13 11 10 9 9 9 9 10 10 9 9 9 9 9 12 14 14 16 16 13 7 7 7 7 6 7 8 4 5 15 15 15 15 14 14 14 14 15 14 14
9 8 7 8 16 15 15 14 15 16 16 17 17 17 17 17 16 15 15 16 15 15 15 15 15 16 17 16 15 15 15 15 15 16 16 16 16 16 15 15 16 16 16 15 13 12 11 9 9 8 8 9 9 9 9 8 7 9 12 13 13 17 16 15 8 7 6 7 7 5 4 5 7 10 15 15 17 17 16 15 14 15 14 15 15
10 8 8 8 10 14 14 14 15 15 17 16 16 17 17 16 16 15 14 13 13 13 14 13 13 13 14 15 15 15 15 15 15 15 15 17 16 16 15 16 15 15 14 13 13 12 10 10 8 8 8 8 8 8 8 9 11 13 13 13 11 16 15 14 7 7 6 6 5 5 4 5 7 14 14 15 15 15 14 14 15 14 14 15 16
9 9 8 9 8 16 14 14 14 16 16 16 16 16 16 15 14 14 13 12 12 12 12 12 12 13 13 13 13 13 13 12 12 13 16 16 16 16 16 16 15 15 13 12 11 11 10 10 9 8 7 7 7 7 10 13 13 13 12 11 8 16 16 12 9 7 7 5 5 6 5 6 9 14 14 15 15 15 14 14 15 15 14 14 15
11 10 9 7 7 10 16 13 14 14 14 15 15 15 14 13 13 13 12 12 12 12 12 12 12 13 13 13 12 12 11 11 11 14 16 16 16 16 16 16 15 14 13 12 10 10 10 10 9 8 7 6 7 10 12 13 13 13 12 9 10 16 15 7 6 6 7 6 4 4 5 6 12 13 15 15 15 14 14 14 14 14 14 13 14
13 10 9 7 8 9 10 15 15 13 13 14 14 14 14 13 14 13 12 12 12 12 12 12 12 12 12 13 13 12 12 12 12 15 16 16 15 16 16 15 14 13 13 12 10 9 10 9 9 7 6 6 8 10 11 12 13 12 13 14 18 16 15 9 6 6 6 5 4 4 5 6 15 14 14 16 16 15 14 14 14 13 13 13 13
12 11 10 8 7 7 8 8 12 16 14 13 14 14 13 14 13 13 13 13 13 12 12 12 12 12 12 13 13 12 12 13 14 15 16 15 16 16 15 14 14 13 13 11 10 9 8 8 8 7 6 6 8 10 11 12 13 13 12 20 17 16 16 11 7 5 5 6 5 4 3 3 12 15 15 14 14 13 13 13 13 13 13 13 13
12 11 10 9 7 7 7 7 10 9 9 13 14 14 13 13 14 13 13 13 12 12 12 12 12 12 12 13 13 13 13 16 15 15 16 15 16 15 14 14 14 13 13 12 10 8 8 7 7 7 6 5 8 9 10 11 11 12 14 15 15 16 15 12 6 5 5 5 4 3 5 10 13 14 14 15 14 14 14 13 13 13 13 13 13
10 10 10 9 8 7 6 6 7 7 8 6 7 11 13 13 12 12 11 11 11 11 11 11 12 12 13 13 13 14 15 17 16 16 15 16 15 14 14 13 13 13 13 11 10 9 8 7 6 6 4 4 6 7 9 8 8 11 10 12 14 15 15 8 6 6 5 3 4 4 5 10 10 13 14 14 14 14 14 14 13 13 13 13 13
8 8 9 7 7 7 6 6 6 7 6 5 6 7 11 12 11 11 10 10 11 10 11 10 12 13 13 14 14 11 12 12 17 13 16 16 13 9 12 13 13 13 12 11 10 9 8 7 6 5 3 4 5 7 6 7 8 10 12 13 14 13 6 5 6 6 5 4 3 3 9 11 12 12 13 13 12 13 13 13 12 12 13 12 12
6 6 8 7 7 7 7 6 6 6 5 6 6 6 9 13 11 13 13 12 12 12 11 12 11 12 11 11 9 6 5 6 10 9 15 9 10 11 13 13 13 12 12 11 9 8 7 7 6 4 3 3 4 5 5 7 9 11 14 13 12 6 6 5 5 5 4 4 5 7 13 11 12 13 13 13 13 13 12 12 12 12 12 12 12
7 5 6 7 7 6 7 6 6 7 8 7 6 6 7 10 8 7 7 10 11 11 9 6 7 5 10 8 5 5 5 6 6 9 6 9 10 13 12 12 13 12 11 10 9 7 6 7 5 4 2 2 3 3 3 8 10 11 12 13 7 6 5 5 5 5 4 4 4 8 13 12 12 11 12 12 12 12 12 12 12 12 12 12 11
7 6 6 7 7 7 7 9 9 9 9 8 7 6 7 6 7 7 7 9 9 8 6 7 5 5 4 4 4 4 4 5 5 7 7 10 9 12 12 12 13 12 12 11 9 7 5 5 5 4 3 2 2 3 5 5 5 9 11 8 5 5 5 5 5 5 5 4 4 11 12 12 13 13 12 12 12 12 12 12 12 12 12 11 11
8 7 8 7 7 5 5 5 6 7 8 7 6 6 6 6 7 7 6 6 6 6 7 7 6 5 5 5 4 4 4 5 10 14 12 6 7 11 12 12 12 12 12 8 8 7 5 4 3 3 3 3 2 3 5 4 5 5 8 7 6 5 5 5 5 4 4 3 5 13 12 12 13 12 12 12 12 12 11 12 12 11 11 11 11
8 8 7 8 7 6 6 5 4 6 5 4 5 5 5 6 5 6 6 6 6 6 6 5 5 6 6 5 5 4 4 4 4 5 4 5 5 4 5 4 4 5 8 4 3 3 3 1 1 1 1 2 2 4 5 5 5 6 7 7 6 5 5 4 4 4 4 4 5 11 12 11 12 12 12 11 12 11 11 11 11 11 11 10 10
7 9 8 8 8 6 5 5 5 3 3 3 3 4 5 4 5 5 5 4 6 6 5 5 6 6 6 6 5 5 5 5 5 5 4 5 5 4 5 5 4 4 4 4 3 3 2 1 1 0 0 1 2 4 4 5 7 7 5 6 6 5 4 4 4 4 4 5 6 11 10 11 11 12 12 11 11 11 11 10 10 10 9 9 9
2 2 3 4 4 3 3 3 5 5 5 4 5 5 5 5 4 4 5 5 5 6 5 5 6 6 6 7 7 5 5 5 6 5 5 5 5 5 5 5 5 4 3 5 3 3 3 3 1 1 0 0 1 4 5 5 6 7 5 5 6 6 5 5 5 5 5 4 6 11 9 10 11 11 12 11 11 11 11 11 11 10 10 10 10
3 2 2 2 2 3 3 4 5 6 6 4 4 4 3 3 4 5 5 6 6 6 5 6 6 7 7 6 7 6 6 6 5 6 5 5 5 5 4 5 5 5 4 5 5 4 4 3 3 1 1 0 2 4 5 5 5 7 7 5 4 4 4 4 5 5 5 5 4 9 10 9 10 10 11 11 11 11 11 11 12 11 10 9 9
5 3 1 2 1 1 2 3 4 6 3 3 5 4 4 2 3 3 4 6 5 5 5 6 6 6 6 7 7 7 6 6 6 6 5 5 5 5 5 5 4 4 4 4 4 5 4 4 4 3 2 1 2 5 6 5 5 5 7 6 5 4 5 4 4 5 5 5 5 7 11 9 9 10 10 11 11 12 11 11 11 11 11 11 10
8 4 3 3 2 2 2 4 6 7 4 3 5 4 5 5 2 1 2 3 4 4 5 6 6 6 6 6 7 7 7 7 6 6 6 6 5 5 5 4 4 3 4 4 4 4 5 4 3 3 3 2 5 4 6 6 5 5 5 6 5 5 4 4 4 5 5 5 5 5 11 10 8 9 10 10 11 11 11 11 11 10 10 10 10
7 8 3 3 4 2 3 4 4 4 3 3 4 4 4 4 3 2 1 3 4 5 5 5 5 5 6 6 6 7 7 6 7 7 6 6 5 5 5 4 4 4 4 5 4 4 4 5 5 5 3 5 5 5 5 6 5 5 4 6 5 5 5 4 4 4 4 4 4 4 6 8 7 8 9 9 10 10 9 8 9 10 10 10 10
10 6 4 3 4 5 1 4 5 4 3 3 4 5 5 6 5 4 4 4 4 4 4 5 6 6 6 6 6 6 6 6 7 6 7 7 6 5 4 4 5 5 5 5 4 4 4 1 2 4 6 6 5 5 5 6 5 5 5 5 3 4 5 5 4 5 3 2 4 4 4 4 7 7 5 4 5 6 6 6 6 6 7 8 9
8 9 7 6 7 6 4 6 5 4 4 4 4 4 4 4 6 6 5 5 4 4 5 5 5 6 6 6 6 7 6 7 6 7 7 6 6 6 5 5 4 3 5 5 4 3 4 4 6 7 6 6 7 6 5 4 4 3 4 6 5 5 5 5 5 5 3 2 3 4 4 3 3 6 5 4 5 6 5 4 4 4 4 6 6
9 11 12 9 5 4 4 3 6 6 5 4 5 5 5 5 5 6 5 6 5 5 5 5 6 5 5 5 6 6 6 6 7 6 5 5 5 5 4 2 1 2 4 5 4 5 5 7 7 7 5 6 7 6 7 6 3 2 2 4 5 5 5 5 4 5 4 3 3 4 4 4 3 3 3 5 5 4 5 4 3 3 4 4 5
10 11 15 14 8 5 4 5 7 6 5 6 6 7 6 6 6 6 6 6 6 6 6 5 5 5 5 5 6 6 6 6 6 6 5 5 5 5 4 3 2 2 4 5 7 5 6 7 7 7 5 5 5 4 6 6 6 4 3 4 5 5 5 5 2 2 4 4 4 4 4 4 3 3 3 2 4 3 4 4 5 6 5 3 5
14 12 12 12 11 7 2 4 6 6 6 7 6 7 7 6 6 6 6 6 6 6 6 6 5 5 5 6 6 6 6 6 6 6 6 5 5 5 5 3 3 4 5 5 7 6 6 7 7 9 7 5 6 5 4 6 5 5 4 4 5 5 5 5 3 3 3 5 4 4 4 4 3 2 3 3 2 2 4 4 5 5 6 5 3
10 5 7 13 12 12 3 2 4 6 7 7 6 5 5 5 6 5 5 5 5 5 5 5 5 6 5 6 6 6 6 6 6 6 7 6 5 6 4 3 5 5 3 6 6 6 7 7 5 4 8 6 6 7 5 5 5 4 4 4 4 5 5 5 4 4 5 5 4 4 4 3 3 5 3 2 2 1 3 5 6 5 6 6 4
9 7 1 6 12 11 9 5 7 7 7 7 7 5 3 3 4 4 5 4 4 4 4 5 5 5 5 6 7 7 7 7 6 3 3 4 4 5 4 5 6 6 5 3 6 5 6 7 7 3 5 7 6 7 6 5 5 5 4 4 3 3 5 5 4 3 4 5 4 4 4 3 3 3 3 2 1 2 2 3 4 5 4 4 4
7 8 7 8 11 12 11 12 10 8 7 6 3 2 3 2 2 4 4 3 3 3 4 5 5 5 6 5 5 5 6 7 6 5 4 7 6 4 4 5 7 5 6 5 0 4 5 5 8 5 3 3 7 6 6 6 5 5 4 4 4 3 3 4 4 1 3 4 5 4 4 4 4 3 3 2 2 2 2 2 2 2 3 6 5
8 10 11 11 14 14 11 10 8 8 6 6 5 4 4 4 4 2 3 4 4 5 4 5 5 5 6 6 6 5 4 6 7 8 2 1 5 4 5 5 7 7 7 7 4 3 6 8 8 8 7 5 4 5 6 7 6 6 4 5 5 4 5 4 4 2 2 4 4 5 5 4 4 3 3 2 1 1 2 2 2 2 3 6 8
10 12 12 12 14 14 12 12 9 9 9 8 7 7 6 5 2 5 5 4 6 6 5 5 5 5 7 9 8 6 6 6 5 8 8 5 5 5 6 5 5 6 6 8 6 4 4 7 6 5 8 7 3 4 4 7 9 6 4 5 4 4 4 4 4 4 3 4 5 5 4 4 4 4 3 3 2 2 1 2 3 2 4 4 5
12 14 15 15 13 15 15 13 11 10 10 9 8 8 7 7 6 6 4 5 5 7 6 4 5 6 6 7 8 7 2 4 7 5 6 6 6 5 5 6 6 5 5 5 4 4 5 6 6 6 3 7 6 7 7 8 5 7 7 4 3 5 3 2 1 2 2 3 2 4 4 4 4 3 3 4 0 1 2 2 2 4 3 4 4
17 17 17 15 14 13 13 13 12 11 11 11 10 9 7 6 6 4 6 4 2 1 1 2 3 5 6 6 7 8 8 6 5 6 6 5 5 6 6 6 6 6 6 7 6 4 7 8 8 8 7 2 3 5 8 2 6 5 4 5 4 3 2 0 1 1 2 3 2 3 3 3 1 3 5 4 2 1 2 2 3 3 3 3 4
13 12 11 15 16 14 15 15 13 13 12 12 12 11 9 7 5 5 4 4 3 3 3 2 3 5 5 5 5 7 9 7 7 6 5 5 6 6 6 6 6 5 7 8 8 7 6 6 6 7 9 8 5 6 5 2 5 10 5 2 3 2 4 3 3 0 0 2 3 3 2 1 1 1 4 5 5 3 3 3 4 3 3 3 3
14 14 13 14 14 19 18 18 16 15 12 13 13 10 8 7 7 6 5 5 4 4 5 4 5 5 5 4 5 5 6 6 6 6 6 6 5 6 6 6 6 5 6 8 8 8 7 7 8 8 9 10 9 6 7 4 7 3 7 6 2 2 3 3 4 1 0 2 1 6 6 4 4 2 4 4 4 4 5 4 4 3 3 3 3
14 15 13 9 8 13 14 13 10 10 10 9 8 8 9 9 9 8 8 5 7 8 9 9 7 8 7 4 4 5 5 5 5 5 5 6 6 6 6 6 6 6 6 6 6 5 6 6 7 9 8 7 11 8 7 4 7 5 3 0 5 5 7 5 5 4 1 1 0 1 2 2 4 2 3 3 5 5 5 5 4 3 3 3 3
2 3 4 6 5 5 10 11 11 9 7 6 9 8 8 8 10 10 9 9 9 6 6 6 6 5 4 5 5 4 4 6 4 4 3 4 4 5 6 6 6 6 5 6 6 8 7 6 5 7 7 7 6 10 9 7 4 4 3 2 1 1 9 10 5 4 4 0 1 0 0 1 3 4 4 5 5 5 5 5 4 4 3 3 3
2 3 3 3 7 5 1 5 7 8 8 7 9 9 9 9 9 8 8 8 8 8 7 6 5 4 5 5 5 5 5 5 6 4 5 5 5 6 6 5 5 5 6 7 7 6 5 5 6 6 5 6 8 9 8 7 10 6 1 2 0 4 7 3 4 5 6 7 2 1 0 0 2 2 5 6 6 6 6 5 5 4 4 3 3
2 4 6 6 5 5 7 3 2 4 7 9 10 10 8 9 9 8 8 6 6 6 5 5 6 5 6 4 5 5 5 5 5 6 8 8 7 6 5 5 5 5 6 5 5 6 8 8 7 7 7 6 7 6 7 8 6 6 4 1 4 5 3 3 5 4 4 6 2 3 2 3 1 1 5 3 5 6 6 6 5 5 4 3 3
4 2 5 6 6 5 2 2 6 7 7 9 10 10 8 7 8 8 9 7 7 6 6 7 6 6 7 6 5 5 5 5 5 5 6 6 6 5 5 6 6 5 5 5 6 6 6 7 8 8 7 7 6 6 8 7 6 5 4 5 4 4 4 3 3 3 3 2 7 7 4 6 5 3 4 4 5 5 6 6 5 5 4 4 3
10 10 6 1 9 9 7 5 8 7 7 9 8 9 8 8 8 8 8 9 9 9 8 8 7 6 7 6 6 6 5 6 5 5 5 5 3 3 5 5 5 5 5 4 6 7 7 7 7 7 7 7 6 7 5 5 6 6 4 7 7 9 8 5 7 4 5 4 5 3 3 5 7 6 4 4 6 5 6 5 5 5 5 4 3
Wind_Direction
208 152 149 147 143 139 136 132 126 119 117 119 120 118 116 115 114 113 111 109 108 106 105 103 101 101 100 101 101 101 101 100 97 96 96 96 94 94 95 93 95 98 94 89 87 88 87 84 80 84 87 80 80 81 80 92 98 100 98 91 84 88 95 92 83 79 79 80 81 87 84 87 86 85 86 84 85 83 78 74 71 70 71 75 74
160 156 147 147 144 139 135 130 125 120 120 122 122 121 119 116 115 114 112 111 109 108 106 105 104 103 103 103 103 102 102 101 99 99 99 97 98 100 97 94 95 94 91 90 87 89 89 87 87 85 87 88 81 79 78 77 76 77 80 82 85 88 89 84 87 87 88 84 80 80 82 82 84 84 83 83 81 80 78 77 74 70 70 77 76
135 143 149 148 144 141 135 130 128 122 123 124 124 123 121 119 118 116 114 113 112 111 108 107 106 106 105 105 105 104 104 104 104 104 104 102 100 99 99 98 96 95 97 95 91 89 90 90 88 86 87 83 79 80 81 77 73 73 81 86 90 88 82 77 76 75 74 73 69 67 72 77 78 80 80 82 83 81 79 80 77 78 77 77 76
134 143 144 149 145 141 134 131 128 125 124 125 126 125 123 122 120 117 117 116 114 113 111 110 108 108 108 108 108 108 108 108 108 109 105 103 102 100 100 99 98 96 94 90 90 91 92 95 88 78 82 83 80 80 81 84 86 80 79 79 71 72 79 77 73 71 70 70 67 62 57 57 69 74 79 78 77 76 76 75 76 76 74 74 75
133 140 144 142 142 140 135 132 128 126 126 126 127 126 125 124 121 120 120 118 116 114 113 112 112 111 111 111 111 111 111 112 112 109 105 105 104 100 98 98 98 100 99 97 94 93 93 88 85 88 83 86 82 82 83 82 76 72 62 56 67 73 84 78 69 73 73 70 64 59 56 58 61 69 75 77 76 77 79 79 77 76 77 77 76
135 137 139 135 137 138 134 131 128 127 128 128 126 129 127 125 122 122 122 120 118 116 115 114 114 114 114 114 114 114 115 115 114 111 109 110 106 104 101 97 97 98 99 99 97 94 93 88 90 89 91 87 85 83 81 74 69 62 53 48 40 35 42 40 53 81 75 64 56 53 62 65 65 73 78 77 78 76 76 80 80 76 76 75 75
128 134 135 131 130 134 132 130 128 128 129 129 128 130 128 126 123 123 124 122 121 119 118 118 117 117 117 116 116 116 118 119 116 112 113 110 105 107 103 99 95 93 95 98 97 90 86 78 78 81 78 76 72 69 67 66 60 54 51 44 36 32 30 27 73 88 75 58 54 58 56 61 69 74 79 81 80 79 80 80 81 81 79 78 79
114 127 132 127 126 132 130 130 129 128 131 129 130 131 129 127 127 127 126 126 124 122 120 121 120 119 119 118 119 119 121 121 114 112 114 115 113 109 106 102 96 93 90 88 87 83 77 73 68 65 63 60 58 58 57 59 57 52 49 42 36 33 33 75 127 94 78 66 59 59 62 65 67 62 80 79 78 76 75 75 75 79 80 79 77
114 123 128 124 129 132 130 131 131 131 132 131 133 134 132 131 131 130 130 129 127 125 124 123 122 121 121 121 120 122 122 117 114 116 116 115 105 98 94 95 95 90 89 87 85 81 76 70 66 61 59 56 55 56 57 55 57 52 49 44 37 48 63 78 100 87 76 67 63 63 67 72 78 90 88 85 85 83 77 69 75 78 79 78 76
111 113 121 125 131 131 132 133 134 134 134 133 136 137 134 133 133 132 132 132 131 129 128 126 124 123 122 123 124 123 121 117 119 116 116 111 101 103 107 105 99 98 96 92 88 84 78 72 66 61 59 59 57 58 60 57 52 48 43 45 48 54 75 75 82 81 79 78 76 73 73 69 40 72 83 81 85 86 87 87 83 81 77 79 85
109 112 118 124 131 132 134 136 136 138 136 137 138 138 135 134 134 134 135 135 132 130 127 127 126 126 124 125 126 125 122 121 120 118 117 115 114 112 103 96 96 95 92 91 90 87 81 73 65 62 60 59 61 62 61 59 50 46 45 41 51 69 82 85 82 84 84 82 77 72 68 60 69 76 84 86 87 87 84 83 85 84 86 88 91
116 118 119 129 135 132 137 138 140 141 140 138 138 138 135 135 135 137 137 136 132 129 127 126 127 128 127 126 127 126 124 123 122 122 122 120 117 111 108 101 98 99 97 95 93 91 87 79 72 66 62 61 59 60 60 58 58 49 44 39 51 90 92 90 87 87 84 82 82 80 72 60 75 92 95 92 89 85 84 90 92 88 84 79 82
117 120 122 123 126 136 137 140 143 144 142 140 140 139 137 136 138 138 137 134 130 127 127 127 126 125 127 127 127 128 128 128 128 125 126 124 120 113 110 109 107 102 101 100 100 98 94 88 78 71 66 59 53 51 52 46 43 39 38 38 46 93 92 90 87 88 82 75 72 70 67 74 87 93 91 86 83 87 90 92 91 89 86 86 84
115 117 117 121 134 139 139 141 145 145 143 142 142 139 138 138 138 136 134 133 130 129 130 130 128 127 127 128 126 128 129 129 129 128 126 124 120 115 113 114 111 104 101 98 97 98 95 91 87 78 68 56 49 42 40 38 37 34 32 38 50 99 95 90 89 85 79 71 72 77 80 85 80 87 93 92 90 89 86 84 85 87 83 80 80
115 114 117 122 132 137 143 142 143 143 143 141 141 140 138 137 134 134 135 135 135 135 134 133 130 128 128 126 126 128 128 127 131 132 130 125 121 119 116 114 110 107 103 101 99 100 98 98 94 85 72 58 44 41 41 39 36 32 30 24 95 105 99 90 83 77 74 67 59 67 76 92 98 97 95 93 96 96 90 87 86 86 85 81 79
120 117 113 117 136 146 138 146 143 142 142 142 141 140 139 138 137 138 140 141 141 139 138 134 133 129 125 124 125 128 130 130 131 130 120 120 122 120 118 116 115 111 104 103 103 100 101 102 101 92 75 56 44 45 42 40 36 30 22 88 100 102 101 98 89 84 82 77 71 73 86 93 103 102 95 91 90 88 89 87 86 87 85 82 81
117 116 115 116 125 138 142 140 149 147 143 142 143 142 140 141 142 145 147 148 146 142 139 137 135 130 127 130 129 130 130 126 128 127 124 126 128 125 122 121 116 111 109 107 105 104 104 104 98 88 72 52 49 47 45 43 36 28 60 103 107 109 110 107 101 95 93 95 93 75 68 79 97 96 96 97 94 96 96 93 90 89 86 85 85
116 117 116 122 124 133 141 144 147 146 148 145 146 144 144 146 148 151 152 150 145 141 139 139 137 134 131 134 133 131 131 130 130 129 128 130 132 129 124 122 116 115 113 113 114 111 105 99 92 84 70 57 55 53 53 49 41 37 82 100 109 113 112 108 102 99 98 96 92 80 74 99 99 101 101 98 99 97 98 96 94 91 86 85 81
110 116 118 126 129 129 134 140 144 148 146 144 147 151 148 150 149 147 147 145 141 141 142 140 141 137 137 138 139 138 141 138 136 132 132 135 137 131 129 124 118 118 117 117 118 119 115 107 95 88 75 56 60 60 60 55 50 52 52 98 104 106 105 98 101 98 90 87 81 83 94 99 101 101 99 100 101 99 95 96 93 91 93 88 84
111 120 122 127 134 137 142 149 152 150 144 141 146 147 150 146 143 146 145 143 141 141 143 142 145 144 142 145 146 148 147 144 138 135 137 138 136 133 131 124 122 122 121 122 125 128 126 116 108 96 76 51 49 57 66 65 65 59 69 89 98 98 94 96 101 100 104 105 97 97 108 102 95 95 99 99 100 100 100 95 93 92 89 90 89
116 129 128 134 138 145 153 150 147 138 136 142 148 147 154 151 153 155 150 147 147 148 147 146 147 151 147 146 137 128 138 137 138 142 140 137 137 137 134 129 126 127 124 125 128 131 130 125 117 96 81 50 41 48 55 71 70 72 84 94 97 90 98 99 97 94 83 77 90 97 100 108 111 106 102 101 99 98 100 104 101 96 94 93 93
133 139 129 140 149 161 160 148 145 154 159 159 156 158 160 159 154 153 148 155 156 154 153 147 147 152 155 147 131 138 129 131 140 136 131 142 143 144 138 132 131 130 129 127 129 134 137 129 125 121 96 50 24 40 35 47 61 94 102 105 93 98 99 108 106 100 91 84 93 108 112 107 101 103 107 106 104 103 100 95 100 104 105 104 103
143 144 142 160 169 166 168 168 171 166 162 162 162 165 163 155 153 149 155 159 162 155 151 152 147 153 144 126 130 123 129 128 124 139 138 144 146 145 139 136 135 134 132 131 134 135 134 133 136 136 105 52 34 30 44 57 63 80 107 109 100 103 109 112 108 108 111 112 112 114 111 112 114 110 106 107 112 106 102 102 94 90 94 96 92
144 154 163 176 175 165 162 163 165 168 168 169 164 166 162 158 161 158 154 153 152 152 153 155 152 144 134 126 126 128 127 136 151 149 142 142 148 145 142 140 137 137 136 133 134 134 141 136 143 111 75 39 32 36 53 68 62 81 115 114 111 110 116 118 115 112 115 113 112 114 115 113 111 113 116 108 103 107 105 105 107 109 109 107 103
154 166 168 172 176 177 165 159 162 173 169 165 163 166 165 168 161 158 156 154 148 145 147 147 140 138 135 131 133 125 131 142 122 123 121 135 127 129 132 119 123 136 136 120 133 136 125 110 60 62 50 41 25 38 64 67 61 81 112 120 118 116 116 114 112 107 91 94 110 117 117 115 112 111 106 104 106 108 109 107 106 104 103 102 100
168 167 171 169 177 176 174 159 142 147 158 164 136 164 172 180 169 161 151 142 141 144 147 142 136 138 141 138 128 123 131 127 123 130 136 134 134 139 133 134 136 141 134 137 134 133 146 148 115 80 12 41 49 64 78 87 79 83 98 109 114 114 113 114 110 104 100 100 110 116 116 116 118 116 111 111 111 109 108 108 111 114 111 111 111
210 113 140 159 158 174 182 147 154 164 187 177 163 173 179 182 172 160 149 155 151 150 152 148 142 144 145 144 138 142 138 134 134 140 142 144 146 151 151 144 151 157 153 139 150 165 159 157 167 199 70 263 72 90 86 78 91 93 85 93 106 116 125 128 123 113 110 107 114 119 120 119 118 116 118 118 117 118 117 116 117 118 119 121 122
188 300 21 59 168 193 189 162 177 185 189 164 157 177 185 176 174 170 162 166 154 153 148 149 146 151 150 149 146 149 149 147 148 148 154 150 156 154 150 152 158 172 170 167 165 172 179 165 156 188 217 183 109 93 87 90 92 103 98 88 82 102 114 128 132 123 121 121 120 121 120 124 132 130 122 120 122 120 114 113 115 119 120 119 119
144 239 236 84 343 280 219 176 193 201 189 147 163 170 170 170 188 178 173 167 144 143 145 143 148 151 153 153 151 151 154 153 159 159 152 154 152 149 156 172 170 177 170 194 176 174 174 171 167 178 194 167 112 87 94 91 95 103 111 103 97 106 125 142 138 124 119 123 126 131 129 130 122 113 117 123 124 115 117 112 113 116 118 120 123
154 175 257 120 60 336 273 216 202 202 167 157 165 161 160 167 174 146 205 138 127 131 142 147 150 151 157 161 161 157 162 162 161 156 154 153 150 154 154 170 185 171 175 190 196 168 169 167 163 155 167 141 85 98 105 108 111 122 117 118 120 118 125 150 136 120 120 120 133 134 132 134 137 131 131 136 132 123 121 118 115 112 120 129 130
165 176 174 250 164 164 256 249 218 204 160 165 152 145 129 132 117 102 102 123 134 140 145 147 150 156 161 166 165 165 159 160 159 160 156 149 148 155 171 167 176 190 189 202 196 180 169 171 173 168 124 89 107 111 116 118 129 135 135 125 133 126 128 136 127 116 114 118 118 119 125 131 138 139 138 138 134 132 127 125 126 132 125 130 141
178 173 169 218 208 149 259 267 229 193 163 163 151 150 160 143 126 131 145 146 146 142 144 149 156 162 166 168 166 166 160 160 161 163 159 153 154 164 177 176 190 186 188 198 204 200 161 169 133 93 110 120 111 109 121 128 139 151 141 126 130 121 113 113 119 112 108 113 108 96 103 131 128 118 124 143 130 126 107 98 97 120 140 138 139
168 157 156 206 207 165 131 267 234 183 170 173 157 158 158 148 143 154 160 155 149 143 152 166 165 168 170 167 166 163 162 160 170 169 162 155 156 163 175 194 178 168 177 194 199 166 104 105 84 109 116 116 113 109 100 97 119 152 142 133 129 124 123 119 120 118 122 116 100 99 98 112 118 124 120 84 64 64 86 96 109 117 138 143 152
166 162 161 196 205 142 132 232 234 182 174 170 152 161 175 164 155 156 157 155 157 157 164 169 174 172 165 161 161 164 160 164 162 166 156 151 159 160 153 140 153 120 138 125 100 118 122 110 115 111 121 125 120 123 124 118 123 130 117 110 109 111 105 98 105 123 121 111 109 103 106 90 86 86 89 98 94 84 79 80 82 97 123 156 150
168 179 174 162 156 145 127 212 220 182 178 183 171 173 180 171 164 161 160 158 157 162 168 172 176 171 156 157 162 162 160 162 164 156 159 156 156 139 136 164 135 126 133 103 103 96 111 117 125 116 122 116 112 126 128 130 134 136 113 100 109 101 90 106 97 115 125 119 108 105 103 100 85 77 70 60 96 107 94 79 63 62 54 103 153
167 189 162 146 146 120 184 234 217 181 188 193 186 180 179 174 165 163 160 155 155 164 172 177 168 161 161 157 165 161 158 162 163 158 158 167 152 143 165 187 139 114 106 108 103 108 119 122 128 132 130 126 122 119 121 122 127 130 113 106 108 108 115 114 105 135 132 116 111 113 109 107 100 102 103 73 75 114 113 89 61 40 27 29 109
155 177 179 141 145 124 98 4 271 195 195 201 195 186 171 168 168 164 162 153 158 164 167 159 156 165 163 160 163 161 163 166 168 168 159 164 149 150 165 111 75 61 58 107 101 121 129 128 113 126 140 142 134 131 124 124 127 115 100 105 120 129 123 122 131 148 133 120 129 125 121 123 147 131 94 88 72 44 74 60 50 33 20 8 3
138 144 181 138 131 118 111 159 226 229 207 203 199 180 153 139 152 145 152 156 158 159 157 160 161 163 163 161 166 165 170 170 168 144 116 111 146 155 129 112 94 86 60 14 118 133 133 131 114 121 139 130 137 137 135 128 114 112 104 90 71 77 109 114 116 99 121 129 133 133 135 139 125 122 112 106 98 65 46 60 51 32 25 5 17
137 138 138 135 136 143 153 176 198 203 207 211 205 113 108 99 80 116 149 152 161 170 168 169 167 157 162 148 153 168 168 169 139 115 181 175 156 145 126 113 104 106 106 100 357 136 130 123 128 128 92 111 134 138 139 128 114 109 101 96 82 68 61 88 82 140 107 133 141 134 129 145 134 128 131 142 147 117 94 69 46 26 12 44 46
148 155 163 154 158 161 169 164 184 188 192 198 184 151 147 155 156 146 168 173 175 171 177 179 166 165 153 145 164 166 167 162 138 141 129 238 147 134 116 112 125 135 125 126 179 193 142 127 138 136 126 104 91 124 128 118 102 96 94 75 62 83 104 70 118 150 153 134 118 131 151 149 136 139 156 169 153 123 99 83 75 46 37 41 45
159 165 170 170 166 163 158 173 178 185 188 190 190 171 165 154 174 197 190 179 183 175 175 172 174 170 163 153 163 175 165 148 145 149 164 167 142 137 126 119 127 144 142 159 174 177 148 135 132 125 134 125 118 133 139 128 122 98 83 84 73 30 60 115 154 160 168 141 144 152 146 144 152 154 171 155 134 111 95 101 98 53 40 35 30
171 174 180 179 169 164 165 167 173 185 192 194 189 181 178 179 176 186 157 179 185 190 184 172 171 169 165 158 159 148 140 154 148 151 149 154 142 143 134 135 147 157 162 147 152 166 143 131 130 115 123 139 144 164 163 135 130 147 146 123 78 80 39 65 100 111 146 124 160 137 139 142 145 191 106 69 22 102 140 133 84 58 50 49 43
176 183 182 173 167 170 165 163 176 183 190 191 193 196 175 161 167 175 167 171 198 158 137 153 162 165 167 164 154 159 148 172 162 151 144 153 150 144 145 146 155 160 145 139 140 202 161 148 152 147 141 117 127 174 174 189 135 131 112 112 141 121 124 158 43 63 129 137 140 119 87 55 52 185 120 131 194 199 151 118 87 85 70 66 59
187 193 187 185 169 166 168 170 177 185 189 190 198 196 176 152 138 131 138 148 163 147 116 154 183 165 169 166 163 161 164 167 160 153 147 153 155 155 153 154 166 160 155 146 161 187 168 151 155 155 148 147 161 183 202 252 151 136 147 176 133 116 135 213 156 316 9 125 132 107 70 124 160 142 108 158 194 176 131 117 108 98 89 71 60
190 192 191 193 184 171 171 173 178 183 188 196 197 189 167 139 131 118 120 104 111 139 155 181 193 187 171 178 177 168 163 160 159 156 153 164 164 160 162 162 167 167 166 150 164 181 181 168 162 156 169 161 164 171 201 227 186 179 133 125 86 170 221 163 130 83 6 92 90 117 172 212 168 181 195 167 157 139 126 115 109 96 78 68 66
192 194 196 219 216 169 163 161 165 178 191 197 195 192 181 160 148 150 159 160 160 164 184 184 186 190 188 173 170 179 161 158 160 161 157 161 175 171 166 167 181 171 175 154 158 166 176 168 176 169 170 178 163 166 184 222 206 216 241 330 154 168 166 166 149 158 156 268 281 121 155 159 118 171 173 144 140 130 128 120 115 100 83 80 75
224 16 357 323 304 160 159 164 166 171 179 195 202 208 185 168 168 170 168 171 174 188 178 178 189 190 158 169 177 170 171 160 165 170 143 167 179 180 174 178 186 171 155 147 165 177 175 173 168 176 177 168 165 169 181 181 179 260 239 220 189 137 147 149 183 122 126 12 339 273 310 144 152 161 165 155 134 131 125 124 116 110 104 93 84
175 98 64 24 359 351 77 164 170 173 183 192 207 213 189 181 175 172 167 170 180 178 175 171 168 172 172 175 168 171 172 168 165 169 142 189 204 186 177 172 177 166 160 170 172 170 165 174 174 177 167 177 178 175 176 173 177 203 193 160 66 118 143 69 109 145 132 139 164 358 150 152 184 167 149 147 147 139 129 123 120 117 109 91 89
134 116 114 106 82 48 10 350 226 199 195 207 206 208 199 189 184 176 171 167 159 155 153 158 166 166 178 171 172 171 169 172 167 167 171 179 188 189 170 150 167 182 182 166 159 166 175 171 171 173 180 183 185 183 165 179 178 176 138 66 108 127 119 101 124 108 138 135 111 166 144 12 58 136 138 140 143 135 136 139 135 127 120 112 96
9 64 132 105 86 82 45 266 232 215 206 205 206 202 198 191 188 185 176 156 142 137 150 165 175 170 176 177 174 172 170 171 176 168 170 177 183 184 150 156 171 181 192 173 157 164 177 182 183 181 175 170 183 176 181 172 169 168 172 149 129 115 96 102 105 114 68 50 157 172 168 148 147 191 134 150 149 139 135 133 124 126 126 124 110
5 344 317 212 153 163 164 218 232 218 198 196 197 201 198 193 191 190 182 162 152 148 154 165 173 173 177 177 178 179 174 177 176 182 178 180 160 169 151 160 172 184 197 184 178 174 178 183 181 171 175 170 177 177 175 165 159 165 173 162 157 164 168 161 165 162 147 134 99 111 138 162 154 145 192 169 143 143 139 130 132 135 136 126 116